College Station, TX

9:25 AM CDT on July 24, 2016 (GMT -0500)
Easterwood

Weather History for KCLL - December, 2013

Change the Weather History Date:

Wednesday, December 11, 2013

  Actual Average Record
Temperature  
Mean Temperature 42 °F 53 °F  
Max Temperature 54 °F 63 °F 82 °F (1987)
Min Temperature 30 °F 43 °F 23 °F (1957)
Degree Days  
Heating Degree Days 23 13  
Month to date heating degree days 185 130  
Since 1 July heating degree days 487 355  
Cooling Degree Days 0 1  
Month to date cooling degree days 7 11  
Year to date cooling degree days 3275 3084  
Moisture  
Dew Point 31 °F    
Average Humidity 63    
Maximum Humidity 85    
Minimum Humidity 41    
Precipitation  
Precipitation 0.00 in 0.09 in 3.35 in (1940)
Month to date precipitation 0.06 1.15  
Year to date precipitation 38.65 37.98  
Sea Level Pressure  
Sea Level Pressure 30.42 in    
Wind  
Wind Speed 4 mph (North)    
Max Wind Speed 10 mph    
Max Gust Speed 13 mph    
Visibility 10 miles    
Events      
T = Trace of Precipitation, MM = Missing Value Source: NWS Daily Summary

Daily Weather History Graph

Daily Weather History Graph

Search for Another Location

Airport or City:

Trip Planner

Search our weather history database for the weather conditions in past years. The results will help you decide how hot, cold, wet, or windy it might be!

Date:

Astronomy

Dec. 11, 2013 Rise Set
Actual Time 7:12 AM CST 5:25 PM CST
Civil Twilight 6:46 AM CST 5:51 PM CST
Nautical Twilight 6:16 AM CST 6:21 PM CST
Astronomical Twilight 5:46 AM CST 6:50 PM CST
Moon 1:42 PM CST (12/11) 1:53 AM CST (12/11)
Length of Visible Light 11h 05m
Length of Day
10h 12m
Waxing Gibbous, 72% of the Moon is Illuminated
Dec 11
Waxing Gibbous
Dec 17
Full
Dec 25
Last Quarter
Jan 1
New
Jan 7
First Quarter

Hourly Weather History & Observations

Time (CST) Temp. Windchill Dew Point Humidity Pressure Visibility Wind Dir Wind Speed Gust Speed Precip Events Conditions
12:53 AM 30.0 °F - 26.1 °F 85% 30.38 in 10.0 mi Calm Calm - N/A   Clear
1:53 AM 30.9 °F 27.5 °F 26.1 °F 82% 30.37 in 10.0 mi NE 3.5 mph - N/A   Clear
2:53 AM 32.0 °F 27.5 °F 26.1 °F 79% 30.35 in 10.0 mi ENE 4.6 mph - N/A   Clear
3:53 AM 32.0 °F 28.7 °F 25.0 °F 75% 30.36 in 10.0 mi NE 3.5 mph - N/A   Clear
4:53 AM 30.9 °F - 26.1 °F 82% 30.35 in 10.0 mi Calm Calm - N/A   Clear
5:53 AM 30.9 °F - 26.1 °F 82% 30.36 in 10.0 mi Calm Calm - N/A   Partly Cloudy
6:53 AM 34.0 °F - 28.9 °F 82% 30.38 in 10.0 mi Calm Calm - N/A   Overcast
7:53 AM 36.0 °F 31.1 °F 30.0 °F 79% 30.40 in 10.0 mi NE 5.8 mph - N/A   Overcast
8:53 AM 37.0 °F - 32.0 °F 82% 30.42 in 10.0 mi Calm Calm - N/A   Overcast
9:53 AM 39.0 °F - 33.1 °F 79% 30.43 in 9.0 mi Calm Calm - N/A   Overcast
10:53 AM 44.1 °F 42.5 °F 34.0 °F 68% 30.44 in 10.0 mi North 3.5 mph - N/A   Overcast
11:53 AM 45.0 °F 43.5 °F 34.0 °F 65% 30.43 in 10.0 mi NW 3.5 mph - N/A   Overcast
12:53 PM 48.9 °F - 34.0 °F 56% 30.41 in 10.0 mi NW 5.8 mph - N/A   Overcast
1:53 PM 51.1 °F - 35.1 °F 54% 30.39 in 10.0 mi Calm Calm - N/A   Overcast
2:53 PM 53.1 °F - 30.0 °F 41% 30.38 in 10.0 mi North 4.6 mph - N/A   Overcast
3:53 PM 54.0 °F - 33.1 °F 45% 30.40 in 10.0 mi NE 4.6 mph - N/A   Overcast
4:53 PM 52.0 °F - 32.0 °F 47% 30.42 in 10.0 mi NNE 5.8 mph - N/A   Clear
5:53 PM 48.9 °F - 32.0 °F 52% 30.43 in 10.0 mi North 8.1 mph - N/A   Clear
6:53 PM 46.0 °F 43.1 °F 32.0 °F 58% 30.46 in 10.0 mi North 5.8 mph - N/A   Clear
7:53 PM 45.0 °F 41.2 °F 33.1 °F 63% 30.49 in 10.0 mi North 6.9 mph - N/A   Clear
8:53 PM 44.1 °F 39.0 °F 32.0 °F 63% 30.51 in 10.0 mi North 9.2 mph - N/A   Clear
9:53 PM 42.1 °F 37.1 °F 32.0 °F 67% 30.53 in 10.0 mi North 8.1 mph - N/A   Clear
10:53 PM 41.0 °F 35.8 °F 32.0 °F 70% 30.54 in 10.0 mi North 8.1 mph - N/A   Clear
11:53 PM 37.9 °F 32.7 °F 32.0 °F 79% 30.55 in 10.0 mi North 6.9 mph - N/A   Clear